Probability
4 6 7 5 3 1 2 4 4 2 2 1 1 0 1 2 2 1 0 0 0 0 0 0 0 0 0 0 0 0 0 0 0 0 0 0 0 0 0 0 0 0 0
8 10 11 9 6 3 4 7 8 7 6 5 4 3 3 2 1 0 0 0 0 0 0 0 0 0 0 0 0 0 0 0 0 0 0 0 0 0 0 0 0 0 0
14 14 14 15 13 9 9 13 15 16 15 12 10 8 5 3 1 0 0 0 0 0 0 0 0 0 0 0 0 0 0 0 0 0 0 0 0 0 0 0 0 0 0
15 15 16 19 22 20 20 22 25 28 29 25 19 13 8 5 3 2 1 0 0 0 0 0 0 0 0 0 0 0 0 0 0 0 0 0 0 0 0 0 0 0 0
12 13 17 22 27 30 31 34 40 44 45 42 35 25 18 13 9 6 4 2 1 0 0 0 0 0 0 0 0 0 0 0 0 0 0 0 0 0 0 0 0 0 0
7 10 16 21 26 31 36 45 52 56 58 57 51 43 36 29 19 12 7 4 2 1 0 0 0 0 0 0 0 0 0 0 0 0 0 0 0 0 0 0 0 0 0
5 9 16 21 22 26 36 47 55 61 64 62 57 53 49 44 35 24 16 10 6 3 1 1 1 0 0 0 0 0 0 0 0 0 0 0 0 0 0 0 0 0 0
5 11 18 18 16 20 29 41 51 59 62 62 59 56 54 52 45 35 27 19 12 7 5 3 2 1 0 0 0 0 0 0 0 0 0 0 0 0 0 0 0 0 0
6 12 16 13 10 13 20 30 41 51 58 63 62 58 54 51 45 37 31 25 18 13 9 7 4 3 1 0 0 0 0 0 0 0 0 0 0 0 0 0 0 0 0
11 13 15 11 8 8 12 18 27 39 52 58 58 55 48 40 32 27 26 27 23 16 12 9 6 5 2 0 0 0 0 0 0 0 0 1 1 1 0 0 0 0 0
18 18 17 16 13 10 11 15 18 26 37 41 42 43 37 26 18 18 26 33 27 17 13 10 8 6 3 1 0 0 0 0 0 0 0 2 2 1 0 0 0 0 0
23 22 20 19 18 16 20 24 22 24 29 29 31 34 30 23 17 20 34 38 28 17 13 12 10 6 2 0 0 0 0 0 0 0 1 3 2 1 0 0 0 0 0
28 26 23 22 21 23 31 39 39 39 42 40 40 43 43 39 32 33 40 40 28 19 15 13 10 4 1 0 0 0 0 0 0 0 2 3 2 0 0 0 0 0 0
32 31 30 30 30 33 41 50 52 55 60 60 59 61 61 59 51 46 47 43 32 23 20 18 12 7 3 1 0 0 0 0 0 1 2 2 2 1 0 0 0 0 0
35 35 36 39 42 46 52 55 56 61 66 68 69 70 71 69 64 57 56 54 42 33 30 25 19 15 10 5 2 1 1 1 1 1 3 5 5 4 3 2 1 1 1
38 38 41 44 48 53 57 56 57 60 64 66 68 71 72 72 69 64 64 63 55 47 41 35 30 26 23 16 9 6 4 4 3 3 5 8 9 7 6 6 5 4 3
36 38 39 41 45 51 54 55 56 58 60 61 65 69 71 71 71 68 67 66 64 59 55 50 46 43 39 31 22 16 11 9 7 7 8 10 10 8 8 8 9 7 6
31 32 33 35 40 47 51 54 55 56 58 60 63 66 66 67 69 71 70 68 68 68 67 64 62 61 54 43 33 26 20 15 13 11 10 11 11 10 10 11 11 9 7
27 29 29 30 36 43 49 53 55 57 59 61 61 59 59 60 64 68 70 71 70 71 72 70 69 69 62 49 38 31 25 21 17 14 12 11 13 14 14 14 12 10 8
27 28 28 29 34 40 47 52 54 56 60 59 55 51 50 52 56 58 62 66 68 69 71 71 70 70 64 50 37 28 22 17 17 16 13 10 11 14 15 14 13 9 7
23 23 24 26 31 37 44 50 51 52 56 55 51 46 44 45 48 49 50 55 59 62 66 69 68 66 58 46 33 22 14 10 11 12 10 7 8 10 11 10 9 6 4
17 17 18 21 25 32 38 41 42 44 47 47 44 42 41 40 40 41 41 45 50 55 59 62 62 57 47 37 29 20 12 7 7 7 7 5 4 5 4 4 4 3 2
13 13 15 17 21 25 29 30 31 35 36 33 32 34 35 35 33 33 34 37 43 49 51 52 51 46 37 29 25 22 16 11 7 5 4 3 2 2 1 0 1 1 1
12 11 12 16 18 19 22 23 24 26 26 24 24 26 29 29 28 27 28 32 38 41 43 44 40 34 28 23 22 21 19 15 8 3 3 2 1 1 1 0 0 0 0
10 10 11 13 14 15 16 18 19 20 21 22 23 23 25 26 25 24 25 28 32 34 35 35 32 26 22 19 20 19 17 13 7 3 1 1 0 1 1 0 0 0 0
10 10 10 11 12 13 14 14 15 17 18 20 22 22 24 27 25 23 24 26 28 30 31 29 26 23 19 18 18 17 14 9 6 3 1 0 0 0 0 0 0 0 0
Wind_Speed
13 18 18 15 14 15 16 16 16 16 17 17 16 16 16 15 14 14 14 13 12 12 12 11 11 10 11 11 12 12 13 13 13 13 12 12 11 12 12 11 10 12 13
16 19 18 15 15 15 16 16 17 17 17 17 16 16 15 15 14 14 13 12 11 11 11 11 10 11 11 12 12 13 13 13 12 12 12 12 11 11 10 7 6 11 11
18 19 19 15 15 16 16 16 17 17 17 17 16 16 15 14 14 13 13 12 11 11 11 10 10 11 11 12 12 12 12 12 11 11 11 10 11 10 9 9 11 12 10
18 18 18 17 15 16 16 16 16 17 17 17 16 16 15 15 14 13 13 12 11 10 10 10 10 11 11 12 12 12 11 11 10 10 8 8 10 11 10 10 10 10 10
17 17 18 17 15 16 16 17 16 17 17 17 16 16 15 14 13 12 12 12 11 11 10 10 11 11 11 11 11 11 10 10 9 10 6 7 8 11 9 10 10 9 9
17 17 19 15 15 15 15 16 16 17 16 16 16 15 14 14 13 12 12 12 11 11 11 11 11 11 10 10 10 10 10 9 11 7 6 6 8 11 9 9 9 9 8
16 16 19 14 14 14 14 15 15 15 15 15 15 15 14 13 12 12 11 12 11 11 11 11 11 10 10 10 10 9 9 9 9 6 6 5 8 11 10 9 9 8 8
15 16 17 15 15 14 14 14 14 14 14 14 14 13 13 12 11 11 11 11 11 11 11 11 10 10 9 9 9 9 9 9 7 5 5 5 11 10 10 9 9 9 8
14 15 15 16 15 14 12 12 12 12 12 13 12 12 12 12 11 11 11 11 11 11 11 11 11 10 9 8 8 7 7 8 7 5 5 4 11 10 10 9 9 9 8
12 13 13 14 14 14 13 13 12 12 11 12 12 13 13 12 12 11 11 10 11 11 11 11 10 10 9 8 7 7 6 8 8 6 4 6 10 9 10 9 10 9 9
11 10 11 12 12 12 12 13 13 12 11 12 12 12 12 11 12 11 11 11 11 11 11 11 10 9 9 9 7 7 8 8 6 3 3 9 9 9 9 10 10 10 9
11 10 10 11 11 11 9 10 10 11 11 11 10 12 10 8 7 8 11 11 11 11 11 11 10 11 10 9 10 9 8 8 5 4 4 9 7 8 9 9 10 10 10
9 7 7 7 8 8 7 7 6 6 8 10 10 10 8 7 6 6 6 9 9 11 10 11 11 10 9 6 6 8 7 6 4 3 6 8 6 7 8 8 9 10 9
7 6 5 6 6 7 6 6 6 6 6 7 9 11 8 6 6 6 5 7 8 7 8 8 7 8 8 7 8 7 7 5 4 3 5 7 4 5 6 7 8 8 8
4 3 3 2 4 4 4 5 5 6 6 7 7 9 9 7 7 7 5 5 7 6 7 7 7 7 7 8 7 7 6 6 4 3 4 8 5 4 5 5 6 6 6
3 1 1 1 2 3 4 4 4 5 5 7 7 9 10 7 7 6 6 6 7 6 7 7 7 6 6 5 6 5 5 5 4 4 3 7 7 6 4 4 4 4 5
3 2 1 1 1 2 4 5 5 5 5 6 6 7 8 8 8 7 7 7 7 7 7 6 7 6 6 5 5 4 3 3 2 2 2 3 5 8 7 7 6 6 6
5 3 2 1 1 2 3 4 4 4 5 5 4 5 7 8 8 7 7 7 7 7 7 7 6 6 5 5 4 3 2 2 2 2 2 2 2 4 8 9 8 8 7
7 5 3 2 1 2 3 3 4 3 4 3 3 4 5 8 8 7 6 6 7 7 7 7 7 6 6 5 4 3 2 1 2 2 2 2 3 4 5 10 11 10 10
8 6 5 4 3 2 2 3 3 3 3 2 2 3 5 6 7 7 6 7 7 7 7 7 7 7 6 6 5 3 2 2 2 2 3 3 3 4 4 6 7 10 12
8 8 7 6 5 3 2 2 2 3 3 2 2 3 4 4 5 6 6 6 7 7 8 8 6 8 6 6 5 4 2 3 3 2 2 3 4 4 5 5 5 5 7
9 8 7 7 6 5 3 3 2 2 2 2 2 2 3 4 4 5 6 5 6 6 7 8 7 6 6 7 5 5 4 3 2 2 3 4 4 4 5 6 6 5 5
9 9 7 8 7 6 5 3 2 2 2 1 1 1 2 2 3 4 5 4 5 5 5 7 8 9 7 7 7 5 6 6 4 3 3 4 5 5 5 6 7 7 7
9 8 7 7 7 7 5 3 3 2 1 1 1 1 1 1 2 2 3 4 4 4 4 6 7 6 8 8 6 6 3 4 6 5 4 4 5 5 6 5 6 6 7
8 7 7 7 7 7 6 5 3 2 1 1 1 0 0 0 1 1 1 2 2 3 4 5 5 6 6 8 6 5 4 3 4 5 6 6 5 4 5 5 5 5 6
7 7 7 8 8 8 8 6 5 4 3 2 2 1 1 1 2 2 1 1 1 1 2 4 4 5 4 6 5 5 5 5 5 4 6 7 6 5 5 4 4 3 4
Wind_Direction
149 140 143 145 142 143 146 148 149 149 148 147 147 147 146 145 143 140 137 134 132 130 128 127 126 125 124 124 123 122 123 123 123 125 125 121 117 114 114 124 136 110 108
144 140 144 143 141 142 145 147 148 148 149 148 148 148 148 148 146 144 141 139 137 133 130 129 129 126 125 125 126 127 129 130 132 134 134 130 124 119 120 118 75 104 119
141 140 148 144 142 142 144 145 146 147 148 149 149 149 149 149 148 147 146 144 142 138 134 132 132 130 129 130 131 133 135 138 141 146 164 145 127 128 125 112 102 118 122
142 146 151 144 144 142 143 143 144 147 148 149 150 150 150 151 151 151 151 149 147 144 140 137 136 135 135 136 138 139 142 144 149 175 182 133 133 131 136 129 126 128 126
145 147 142 149 145 143 143 143 144 146 147 148 149 150 151 152 153 153 154 153 150 147 144 141 139 139 141 142 143 145 147 148 161 211 138 131 127 135 144 142 139 137 136
148 146 144 153 147 145 144 144 144 146 147 148 150 151 152 153 154 154 156 155 152 150 147 145 144 145 146 147 148 150 151 156 192 174 137 150 135 144 154 154 152 148 146
148 145 146 152 148 148 148 146 146 147 148 149 151 153 153 154 154 156 157 156 154 152 151 150 149 150 152 152 154 157 161 184 224 148 153 164 126 147 164 165 162 161 162
146 144 144 153 155 156 155 153 151 150 150 151 153 154 154 154 155 157 158 158 157 156 155 154 155 156 155 156 159 164 173 213 211 159 176 154 123 161 174 174 171 173 176
146 144 151 158 161 163 160 159 157 155 154 154 154 155 156 157 159 161 161 161 160 160 159 160 162 162 159 159 164 171 182 231 246 174 183 146 139 176 184 183 181 183 187
147 148 154 162 163 168 169 168 166 163 160 159 160 161 162 164 168 169 171 164 165 165 165 165 167 166 165 167 171 177 190 225 234 186 184 135 153 186 191 190 191 194 197
148 152 160 165 168 176 172 165 174 172 169 169 171 169 175 183 180 180 185 162 173 173 172 171 171 170 171 174 179 185 207 225 205 203 174 121 167 193 196 196 199 202 204
155 163 169 172 173 182 173 168 181 184 176 191 181 180 194 191 192 193 148 169 182 182 179 177 175 177 200 187 180 197 219 224 207 199 142 134 179 200 200 198 202 208 209
150 159 169 178 182 185 179 179 187 190 180 196 188 189 196 191 195 200 168 177 189 192 193 177 187 199 205 202 194 201 222 223 216 209 138 143 178 200 200 198 201 208 212
142 153 166 174 183 195 191 188 193 197 188 196 189 197 194 199 202 202 198 192 191 199 199 192 203 197 209 204 217 217 213 224 220 212 126 135 166 190 194 194 199 207 211
119 140 158 186 185 195 202 210 205 207 201 203 200 200 202 203 206 203 207 208 208 203 196 206 208 193 203 206 216 215 221 223 229 223 139 130 149 166 183 194 196 199 200
65 82 132 191 189 201 205 216 218 217 215 216 207 208 209 211 209 206 211 212 218 213 212 206 205 196 207 208 211 209 222 217 217 219 193 128 123 125 131 146 152 157 165
30 20 339 225 210 225 225 224 223 226 220 221 215 214 214 218 212 213 216 216 219 214 210 214 207 203 201 196 195 195 206 219 199 192 199 165 136 121 116 114 115 118 123
19 11 348 299 242 233 241 242 235 230 223 220 217 213 216 222 218 216 219 220 217 214 208 208 206 202 195 189 179 178 168 163 161 164 171 150 126 116 110 104 104 107 110
20 15 7 346 290 251 244 240 242 235 233 229 223 221 219 226 227 225 225 221 218 217 214 214 201 199 188 180 162 144 136 140 144 130 116 112 110 116 114 103 96 93 99
25 20 14 7 350 294 245 230 232 235 230 230 222 226 233 232 231 230 230 224 225 222 215 215 206 198 186 170 155 125 106 110 100 105 117 105 102 113 113 113 107 91 87
27 21 14 8 1 342 299 257 237 235 236 222 218 226 236 241 240 236 239 231 229 227 218 208 201 195 186 163 150 139 114 89 89 95 107 111 102 98 97 96 99 102 97
24 17 13 7 360 346 333 299 276 276 257 246 240 226 244 245 250 243 236 231 225 227 220 209 194 198 192 186 179 164 166 155 119 99 112 111 101 98 96 92 92 94 95
23 16 11 6 358 352 339 296 261 235 233 225 240 238 264 265 252 243 242 237 234 231 227 214 206 206 199 199 198 185 181 182 142 126 103 104 109 102 99 96 94 93 94
17 15 14 11 10 5 355 341 310 276 263 290 300 296 297 301 278 247 246 236 236 234 232 224 215 214 204 199 203 214 211 151 158 147 130 108 102 101 98 97 96 93 94
18 18 19 20 22 15 9 6 346 337 329 337 343 347 290 12 328 328 299 261 247 242 236 230 222 216 211 206 196 188 182 164 167 153 150 143 115 94 93 93 95 95 94
28 31 28 26 28 24 19 19 18 19 21 42 30 355 1 41 36 24 360 339 307 275 245 231 223 215 214 213 203 191 174 171 179 154 144 148 133 108 92 83 93 102 105